Location: Caltech
(34.1382°N, 118.1253°W)
Time: 03:23:20
(UTC-07:00)

BREEZE M DEB (TANK) - Visible Passes

Search period start: 25 June 2017 00:00
Search period end: 05 July 2017 00:00
Orbit: 313 x 13707 km, 49.5° (Epoch: 24 June)

Date Brightness Start Highest point End Pass type
(mag) Time Alt. Az. Time Alt. Az. Time Alt. Az.
25 Jun 5.3 02:40:56 11° NNW 02:40:56 11° NNW 02:41:20 10° N visible
26 Jun 7.2 21:08:40 10° SSE 21:13:00 11° SE 21:13:06 11° SE visible
27 Jun 7.0 22:49:49 10° SSW 22:56:08 19° SSW 22:56:08 19° SSW visible
29 Jun6.400:54:01NE00:54:01NE00:39:09SWvisible
29 Jun 6.4 21:52:38 10° S 22:04:59 23° SSE 22:04:59 23° SSE visible
30 Jun 6.5 23:42:45 10° SW 23:48:01 21° SW 23:48:01 21° SW visible
01 Jul 6.3 20:56:45 10° S 21:09:24 18° SE 21:13:51 14° ESE visible
02 Jul 5.2 22:44:04 10° SSW 22:56:49 41° S 22:56:49 41° S visible
04 Jul 6.3 00:37:33 10° WSW 00:48:44 - NE 00:39:45 15° WSW visible
04 Jul 5.5 05:12:35 10° N 05:14:45 17° NE 05:18:23 10° E visible
04 Jul 5.4 21:45:37 10° SSW 22:02:27 34° SE 22:05:29 25° ESE visible
